Regional Weather Roundup
Issued by NWS

Home | Current Version | Previous Version | Text Only | Print | Product List | Glossary Off
Versions: 1 2 3 4 5 6 7 8 9 10 11 12 13 14 15 16 17 18 19 20 21 22 23 24 25 26 27 28 29 30 31 32 33 34 35 36 37 38 39 40 41 42 43 44 45 46 47 48 49 50

000
ASUS43 KBIS 180010
RWRND

NORTH DAKOTA REGIONAL WEATHER ROUNDUP
NATIONAL WEATHER SERVICE BISMARCK ND
600 PM CST SUN DEC 17 2017

NOTE: "FAIR" INDICATES FEW OR NO CLOUDS BELOW 12,000 FEET WITH NO
SIGNIFICANT WEATHER AND/OR OBSTRUCTIONS TO VISIBILITY.


NDZ001>003-009>011-017-180100-
NORTHWEST NORTH DAKOTA

CITY           SKY/WX    TMP DP  RH WIND       PRES   REMARKS
WILLISTON      CLOUDY    35  20  54 SW12      29.70R
6HR MIN TEMP:  31; 6HR MAX TEMP:  38;

MINOT          PTCLDY    37  25  61 S10       29.68F
MINOT AFB      PTCLDY    34  24  68 SW10      29.66F
$$

NDZ018>021-031>035-040>046-180100-
SOUTHWEST NORTH DAKOTA

CITY           SKY/WX    TMP DP  RH WIND       PRES   REMARKS
BISMARCK       CLEAR     29  20  69 S8        29.79F
6HR MIN TEMP:  29; 6HR MAX TEMP:  42;

DICKINSON      CLOUDY    36  24  62 SW13      29.71F
GARRISON         N/A     36  28  73 SW10      29.71F
6HR MIN TEMP:  32; 6HR MAX TEMP:  40;

HETTINGER ARPT PTCLDY    31  21  66 SW8       29.79R
$$

NDZ004>008-012>016-024-026-027-054-180100-
NORTHEAST NORTH DAKOTA

CITY           SKY/WX    TMP DP  RH WIND       PRES   REMARKS
GRAND FORKS    CLEAR     19  18  95 S8        29.84F WCI   9
GRND FRKS AFB  CLEAR     21  18  87 S10       29.82F WCI  10
DEVILS LAKE    CLEAR     29  23  78 S10       29.76F WCI  20
$$

NDZ022-023-025-028>030-036>039-047>053-180100-
SOUTHEAST NORTH DAKOTA

CITY           SKY/WX    TMP DP  RH WIND       PRES   REMARKS
FARGO          CLEAR     30  28  92 S9        29.88S
6HR MIN TEMP:  28; 6HR MAX TEMP:  32;

JAMESTOWN      CLEAR     31  24  75 S7        29.81F
$$





USA.gov is the U.S. government's official web portal to all federal, state and local government web resources and services.